Weather observations for the past three days for
Beaver Island, Beaver Island Airport
Imperial (Metric)
Date Time (edt) Wind (mph) Vis. (mi.) Weather Sky Cond. Temperature (ºF) Relative Humidity Wind Chill (°F) Heat Index (°F) Pressure Precipitation (in)
Air Dwpt 6 hour altimeter (in) sea level (mb) 1 hr 3 hr 6 hr
Max. Min.
24 21:35 SE 3 10.00 Fair CLR 64.6 52.2 64% 29.83 0.0
24 21:15 SE 3 10.00 Fair CLR 64.4 51.8 64% 29.83 0.0
24 20:55 Calm 10.00 Fair CLR 65.5 51.3 60% 29.85 0.0
24 20:35 S 3 10.00 Fair CLR 67.6 50.4 54% 29.86 0.0
24 20:15 S 3 10.00 Fair CLR 70.3 50.9 50% 29.86 0.0
24 19:55 S 6 10.00 Fair CLR 71.8 51.3 74.8 71.8 49% 29.87 0.0
24 19:35 S 6 10.00 Fair CLR 73 50.9 46% 29.88 0.0
24 19:15 SW 5 10.00 Fair CLR 72.9 50.9 46% 29.89 0.0
24 18:55 S 7 10.00 Fair CLR 73.6 50 44% 29.9 0.0
24 18:35 SW 8 10.00 Fair CLR 74.1 49.5 42% 29.91 0.0
24 18:15 SW 5 10.00 Fair CLR 72.9 49.6 44% 29.91 0.0
24 17:55 SW 6 10.00 Fair CLR 73.9 49.5 42% 29.92 0.0
24 17:35 S 8 10.00 Fair CLR 73.2 49.1 43% 29.93 0.0
24 17:15 SW 8 10.00 Fair CLR 73.8 49.5 42% 29.93 0.0
24 16:55 SW 6 10.00 Fair CLR 73.8 51.4 46% 29.93 0.0
24 16:35 SW 10 10.00 Fair CLR 73.8 51.4 46% 29.94 0.0
24 16:15 SW 10 10.00 Fair CLR 73.4 51.3 46% 29.95 0.0
24 15:55 SW 9 10.00 Fair CLR 74.1 50.9 44% 29.95 0.0
24 15:35 SW 8 10.00 Fair CLR 73.6 51.1 45% 29.95 0.0
24 15:15 SW 7 10.00 Fair CLR 73 51.8 47% 29.96 0.0
24 14:55 W 9 10.00 Fair CLR 72.7 52.9 50% 29.98 0.0
24 14:35 SW 8 10.00 Fair CLR 72.9 53.2 50% 29.98 0.0
24 14:15 SW 9 10.00 Fair CLR 73.6 52.9 48% 29.98 0.0
24 13:55 SW 7 10.00 Fair CLR 73 52.5 74.3 62.2 49% 29.98 0.0
24 13:35 W 8 10.00 Fair CLR 74.3 52.2 46% 29.98 0.0
24 13:15 W 8 10.00 Fair CLR 73.8 51.4 46% 29.99 0.0
24 12:55 W 6 10.00 Fair CLR 73.2 53.4 50% 29.98 0.0
24 12:35 W 7 10.00 Fair CLR 73.2 54.9 53% 29.98 0.0
24 12:15 W 6 10.00 Fair CLR 72.9 55.6 55% 29.98 0.0
24 11:55 NW 6 10.00 Fair CLR 72.1 54.3 54% 29.99 0.0
24 11:35 W 3 10.00 Fair CLR 71.4 51.1 49% 29.99 0.0
24 11:15 NW 3 10.00 Fair CLR 71.1 51.8 51% 29.98 0.0
24 10:55 W 5 10.00 Fair CLR 70.2 51.4 52% 29.98 0.0
24 10:35 W 5 10.00 Fair CLR 69.3 53.8 58% 29.98 0.0
24 10:15 NW 3 10.00 Fair CLR 68 54 61% 29.98 0.0
24 09:55 NW 3 10.00 Fair CLR 67.5 54.9 64% 29.98 0.0
24 09:35 Calm 10.00 Fair CLR 65.8 55.2 69% 29.97 0.0
24 09:15 NW 5 10.00 Fair CLR 64.2 54.7 71% 29.98 0.0
24 08:55 NW 5 10.00 Fair CLR 64.4 55.2 72% 29.98 0.0
24 08:35 Calm 10.00 Fair CLR 62.6 55.4 77% 29.96 0.0
24 08:15 NW 3 10.00 Fair CLR 63 56.3 79% 29.97 0.0
24 07:55 NW 3 10.00 Fair CLR 62.1 56.5 62.1 55.6 82% 29.97 0.0
24 07:35 W 3 10.00 Fair CLR 61.2 56.8 86% 29.95 0.0
24 07:15 W 3 10.00 Fair CLR 59 57.4 94% 29.94 0.0
24 06:55 Calm 10.00 Fair CLR 56.1 55.6 98% 29.93 0.0
24 06:35 Calm 10.00 Fair CLR 56.3 54.9 95% 29.93 0.0
24 06:15 Calm 10.00 Fair CLR 56.5 54.9 94% 29.93 0.0
24 05:55 Calm 10.00 Fair CLR 56.3 55.2 96% 29.93 0.0
24 05:35 NW 3 10.00 Fair CLR 55.8 54.7 96% 29.91 0.0
24 05:15 Calm 10.00 Fair CLR 56.7 55.4 96% 29.91 0.0
24 04:55 NW 5 10.00 Partly Cloudy SCT060 56.8 55.8 96% 29.91 0.0
24 04:35 Calm 10.00 Mostly Cloudy SCT060 BKN080 57.6 56.3 96% 29.9 0.0
24 04:15 Calm 10.00 Mostly Cloudy BKN080 57.2 56.3 97% 29.91 0.0
24 03:55 Calm 10.00 Partly Cloudy SCT080 56.7 55.9 97% 29.91 0.0
24 03:35 N 3 10.00 Fair CLR 56.7 56.1 98% 29.9 0.0
24 03:15 NW 6 10.00 Fair CLR 56.7 55.8 97% 29.9 0.0
24 02:55 NW 3 10.00 Fair CLR 57 55.9 96% 29.89 0.0
24 02:35 NW 3 10.00 Fair CLR 57.4 56.1 96% 29.89 0.0
24 02:15 NW 3 10.00 Fair CLR 58.3 56.7 94% 29.88 0.0
24 01:55 NW 6 10.00 Fair CLR 58.1 57.2 68.5 57.6 97% 29.88 0.0
24 01:35 NW 3 10.00 Partly Cloudy SCT100 58.6 56.7 93% 29.87 0.0
24 01:15 NW 5 10.00 Mostly Cloudy BKN100 59 56.8 93% 29.87 0.0
24 00:55 NW 3 10.00 Partly Cloudy SCT110 57.9 55.9 93% 29.86 0.0
24 00:35 Calm 10.00 Partly Cloudy SCT090 SCT120 59.2 55.9 89% 29.86 0.0
24 00:15 W 3 10.00 Light Rain SCT060 BKN090 OVC120 60.1 55.8 86% 29.85 0.0
23 23:55 N 5 10.00 Mostly Cloudy BKN120 60.4 55.4 84% 29.86 0.0
23 23:35 Calm 10.00 Fair CLR 60.3 55.2 84% 29.85 0.0
23 23:15 Calm 10.00 Fair CLR 60.8 55 81% 29.85 0.0
23 22:55 Calm 10.00 Fair CLR 61.2 54.5 79% 29.85 0.0
23 22:35 Calm 10.00 Fair CLR 61.7 54.5 77% 29.84 0.0
23 22:15 N 3 10.00 Partly Cloudy SCT065 SCT085 62.4 54.5 75% 29.84 0.0
23 21:55 N 7 10.00 Partly Cloudy SCT065 62.8 54.5 75% 29.83 0.0
23 21:35 N 8 10.00 Fair CLR 63.9 54.3 71% 29.83 0.0
23 21:15 N 5 10.00 Fair CLR 65.1 54.9 70% 29.81 0.0
23 20:35 NW 5 10.00 Mostly Cloudy BKN095 66.2 57.6 74% 29.81 0.0
23 19:55 NW 5 10.00 Partly Cloudy SCT095 68.7 56.3 74.8 68.7 65% 29.79 0.0
23 19:35 NW 8 10.00 Fair CLR 70.5 56.7 62% 29.78 0.0
23 19:15 NW 8 10.00 Fair CLR 70.2 57.7 65% 29.77 0.0
23 18:55 NW 10 10.00 Fair CLR 71.8 57.6 61% 29.77 0.0
23 18:35 NW 6 10.00 Fair CLR 70.3 57.9 65% 29.76 0.0
23 18:15 NW 5 10.00 Fair CLR 71.8 57.9 62% 29.75 0.0
23 17:55 NW 7 10.00 Fair CLR 72.5 57.9 60% 29.75 0.0
23 17:35 NW 8 10.00 Fair CLR 72.7 58.3 61% 29.74 0.0
23 17:15 NW 5 10.00 Fair CLR 73.6 59 60% 29.74 0.0
23 16:55 NW 6 10.00 Fair CLR 74.7 58.6 58% 29.74 0.0
23 16:35 NW 6 10.00 Fair CLR 74.5 58.8 58% 29.73 0.0
23 16:15 NW 9 10.00 Fair CLR 73.8 58.3 59% 29.73 0.0
23 15:55 NW 8 10.00 Fair CLR 73.8 59 60% 29.73 0.0
23 15:35 NW 6 10.00 Fair CLR 72.7 59 62% 29.73 0.0
23 15:15 NW 7 10.00 Partly Cloudy SCT120 71.6 59.2 65% 29.73 0.0
23 14:55 NW 7 10.00 Mostly Cloudy BKN120 71.2 59 65% 29.73 0.0
23 14:35 NW 7 10.00 Partly Cloudy SCT120 71.4 59.4 66% 29.73 0.0
23 14:15 NW 10 G 18 10.00 Partly Cloudy SCT120 71.8 58.8 64% 29.72 0.0
23 13:55 NW 9 10.00 Partly Cloudy SCT120 70.7 58.8 70.7 60.1 66% 29.72 0.0
23 13:35 NW 13 G 18 10.00 Mostly Cloudy BKN120 69.6 58.5 68% 29.71 0.0
23 13:15 NW 8 10.00 Partly Cloudy SCT120 70 58.8 68% 29.7 0.0
23 12:55 NW 9 10.00 Partly Cloudy SCT120 67.8 58.6 73% 29.7 0.0
23 12:35 NW 9 G 16 10.00 Partly Cloudy SCT120 67.8 57.7 70% 29.69 0.0
23 12:15 NW 10 10.00 Mostly Cloudy BKN120 66.2 57.6 74% 29.69 0.0
23 11:55 NW 10 G 16 10.00 Partly Cloudy SCT049 SCT120 65.3 57.6 76% 29.68 0.0
23 11:35 NW 12 10.00 Partly Cloudy SCT049 SCT120 64.2 57.4 79% 29.67 0.0
23 11:15 NW 9 10.00 Partly Cloudy SCT049 63.5 57 80% 29.67 0.0
23 10:55 NW 9 G 18 10.00 Fair CLR 62.6 56.8 82% 29.66 0.0
23 10:35 NW 9 10.00 Partly Cloudy SCT120 62.6 57.6 84% 29.66 0.0
23 10:15 NW 6 10.00 Mostly Cloudy BKN120 62.4 57.6 84% 29.65 0.0
23 09:55 NW 9 10.00 Mostly Cloudy SCT050 BKN120 62.1 58.3 88% 29.65 0.0
23 09:35 NW 10 G 17 10.00 Overcast SCT025 BKN050 OVC120 60.3 57.6 91% 29.65 0.0
23 09:15 NW 9 G 16 10.00 Overcast BKN025 BKN046 OVC055 60.8 59.5 96% 29.65 0.0
23 08:55 NW 6 10.00 Overcast OVC023 60.8 59.9 97% 29.65 0.0
23 08:35 NW 9 10.00 Overcast OVC021 60.6 60.6 100% 29.64 0.0
23 08:15 NW 8 10.00 Overcast OVC019 60.8 60.8 100% 29.63 0.0
23 07:55 NW 9 10.00 Overcast SCT011 OVC017 61 61 62.6 61 100% 29.63 0.0
23 07:35 NW 8 10.00 Overcast SCT003 OVC009 61.7 61.7 100% 29.61 0.0
23 07:15 NW 8 10.00 Overcast SCT003 OVC009 61.9 61.9 100% 29.61 0.0
23 06:55 NW 6 10.00 Overcast OVC006 61.9 61.9 100% 29.59 0.0
23 06:35 NW 8 10.00 Overcast OVC006 61.9 61.9 100% 29.59 0.0
23 06:15 NW 7 10.00 Overcast OVC008 61.9 61.9 100% 29.58 0.0
23 05:55 NW 6 10.00 Overcast OVC008 61.7 61.7 100% 29.56 0.0
23 05:35 NW 8 10.00 Overcast BKN006 OVC011 61.3 61.3 100% 29.56 0.0
23 05:15 NW 5 10.00 Light Rain BKN006 OVC010 61.7 61.7 100% 29.56 0.0
23 04:55 NW 7 10.00 Overcast OVC004 62.1 62.1 100% 29.55 0.0
23 04:35 N 7 10.00 Overcast OVC002 61.7 61.7 100% 29.54 0.0
23 04:15 N 9 G 16 7.00 Light Drizzle OVC004 61.9 61.9 100% 29.55 0.0
23 03:55 N 9 5.00 Heavy Rain OVC004 61.9 61.9 100% 29.55 0.0
23 03:35 N 7 G 16 4.00 Rain OVC004 61.9 61.9 100% 29.55 0.0
23 03:15 N 7 3.00 Heavy Rain OVC002 62.2 62.2 100% 29.56 0.0
23 02:55 N 9 3.00 Drizzle OVC002 62.2 62.2 100% 29.56 0.0
23 02:35 NW 3 1.50 Drizzle OVC002 62.1 62.1 100% 29.56 0.0
23 02:15 N 3 0.50 Fog OVC002 61.7 61.7 100% 29.56 0.0
23 01:55 N 3 0.75 Fog/Mist OVC002 61.9 61.9 63 61.2 100% 29.56 0.0
23 01:35 Calm 0.75 Fog/Mist OVC002 61.7 61.7 100% 29.56 0.0
23 01:15 E 6 1.00 Fog/Mist OVC002 61.7 61.7 100% 29.57 0.0
23 00:55 E 6 1.25 Fog/Mist OVC002 61.7 61.7 100% 29.58 0.0
23 00:35 E 8 5.00 Fog/Mist OVC002 61.7 61.7 100% 29.59 0.0
23 00:15 E 10 10.00 Overcast OVC002 61.3 61.3 100% 29.61 0.0
22 23:55 E 15 G 20 10.00 Overcast OVC002 61.3 61.3 100% 29.61 0.0
22 23:35 E 10 G 16 10.00 Overcast OVC002 61.3 61.3 100% 29.62 0.0
22 23:15 E 12 G 20 10.00 Overcast OVC002 61.7 61.7 100% 29.62 0.0
22 22:55 E 14 G 21 7.00 Overcast OVC002 61.7 61.7 100% 29.63 0.0
22 22:35 E 13 G 21 5.00 Fog/Mist OVC004 61.7 61.7 100% 29.64 0.0
22 22:15 E 9 G 17 5.00 Light Rain OVC004 61.7 61.7 100% 29.64 0.0
22 21:55 NE 10 G 17 4.00 Rain OVC004 61.7 61.7 100% 29.65 0.0
22 21:35 E 10 G 22 5.00 Drizzle OVC004 61.7 61.7 100% 29.66 0.0
22 21:15 E 13 4.00 Light Rain OVC004 61.5 61.5 100% 29.68 0.0
22 20:55 E 12 G 21 4.00 Rain OVC004 61.3 61.3 100% 29.68 0.0
22 20:35 E 14 G 21 3.00 Rain OVC004 61.2 61.2 100% 29.68 0.0
22 20:15 E 12 G 18 3.00 Rain OVC004 61.3 61.3 100% 29.68 0.0
22 19:55 E 12 G 21 4.00 Light Rain OVC004 61.7 61.7 64.9 61.7 100% 29.69 0.0
22 19:35 E 13 G 21 2.50 Rain OVC002 61.7 61.7 100% 29.7 0.0
22 19:15 E 8 3.00 Rain OVC002 61.9 61.9 100% 29.71 0.0
22 18:55 E 7 5.00 Drizzle OVC002 62.6 62.6 100% 29.71 0.0
22 18:35 E 7 5.00 Light Rain OVC002 62.8 62.8 100% 29.72 0.0
22 18:15 E 9 5.00 Light Rain OVC002 62.6 62.6 100% 29.73 0.0
22 17:55 E 7 5.00 Light Rain OVC002 62.8 62.8 100% 29.74 0.0
22 17:35 E 8 5.00 Light Rain OVC002 63 63 100% 29.75 0.0
22 17:15 E 10 10.00 Light Rain OVC002 63.5 63.5 100% 29.76 0.0
22 16:55 E 7 10.00 Rain OVC002 63.5 63.5 100% 29.77 0.0
22 16:35 E 5 7.00 Rain OVC002 63.7 63.7 100% 29.79 0.0
22 16:15 E 6 7.00 Rain OVC002 63.9 63.9 100% 29.8 0.0
22 15:55 E 8 7.00 Light Rain OVC002 64 64 100% 29.8 0.0
22 15:35 E 9 5.00 Light Drizzle OVC002 64.8 64.8 100% 29.81 0.0
22 15:15 E 8 7.00 Light Rain OVC002 64.9 64.9 100% 29.82 0.0
22 14:55 E 10 7.00 Light Rain OVC002 64.8 64.8 100% 29.83 0.0
22 14:35 E 8 5.00 Light Drizzle OVC002 64.8 64.8 100% 29.83 0.0
22 14:15 E 8 5.00 Drizzle OVC002 64.8 64.8 100% 29.84 0.0
22 13:55 E 9 4.00 Light Rain OVC002 64.4 64.4 64.4 60.1 100% 29.86 0.0
22 13:35 E 12 5.00 Rain OVC002 64.4 64.4 100% 29.87 0.0
22 13:15 E 12 5.00 Light Rain OVC002 64.4 64.4 100% 29.88 0.0
22 12:55 E 9 7.00 Light Rain OVC002 63.7 63.7 100% 29.88 0.0
22 12:35 E 12 7.00 Light Rain BKN002 OVC006 63.1 63.1 100% 29.9 0.0
22 12:15 E 10 7.00 Light Rain OVC002 63 63 100% 29.91 0.0
22 11:55 E 8 7.00 Rain OVC002 62.6 62.6 100% 29.92 0.0
22 11:35 E 9 7.00 Light Drizzle OVC002 62.6 62.6 100% 29.93 0.0
22 11:15 E 10 7.00 Light Rain OVC002 62.2 62.2 100% 29.94 0.0
22 10:55 E 10 5.00 Drizzle OVC002 61.7 61.7 100% 29.95 0.0
22 10:35 E 10 7.00 Rain OVC002 61.7 61.7 100% 29.96 0.0
22 10:15 E 9 10.00 Overcast OVC002 61.3 61.3 100% 29.96 0.0
22 09:55 E 9 2.00 Heavy Rain OVC002 61.3 61.3 100% 29.96 0.0
22 09:35 E 8 5.00 Light Rain OVC002 61.5 61.5 100% 29.97 0.0
22 09:15 E 8 4.00 Rain OVC002 61.2 61.2 100% 29.98 0.0
22 08:55 E 7 4.00 Rain OVC002 60.8 60.8 100% 29.98 0.0
22 08:35 E 10 7.00 Overcast OVC002 60.4 60.4 100% 29.98 0.0
22 08:15 E 7 7.00 Light Drizzle OVC002 60.1 60.1 100% 30 0.0
22 07:55 E 7 4.00 Rain BKN002 OVC024 60.1 60.1 60.8 59.4 100% 30 0.0
22 07:35 E 6 5.00 Light Rain SCT002 OVC026 60.1 60.1 100% 30.01 0.0
22 07:15 E 9 5.00 Rain OVC028 60.1 60.1 100% 30.02 0.0
22 06:55 E 7 10.00 Rain SCT003 OVC030 60.1 60.1 100% 30.03 0.0
22 06:35 E 6 10.00 Overcast SCT005 OVC030 60.1 60.1 100% 30.03 0.0
22 06:15 E 6 10.00 Overcast BKN032 OVC055 60.1 60.1 100% 30.04 0.0
22 05:55 Calm 10.00 Rain SCT036 OVC065 59.9 59.9 100% 30.04 0.0
22 05:35 E 3 7.00 Rain SCT048 OVC070 59.7 59.7 100% 30.04 0.0
22 05:15 E 5 10.00 Light Rain SCT048 SCT050 OVC070 59.7 59.7 100% 30.04 0.0
22 04:55 E 5 7.00 Drizzle OVC070 59.9 59.7 99% 30.05 0.0
22 04:35 E 5 10.00 Overcast SCT038 BKN080 OVC100 59.4 59.2 99% 30.06 0.0
22 04:15 E 6 7.00 Rain SCT033 BKN050 OVC090 59.9 59 97% 30.06 0.0
22 03:55 E 3 10.00 Overcast BKN050 BKN070 OVC090 59.9 59 97% 30.08 0.0
22 03:35 E 5 10.00 Light Rain SCT070 OVC100 59.9 59 97% 30.07 0.0
22 03:15 Calm 10.00 Light Rain SCT085 BKN110 59.9 59 97% 30.07 0.0
22 02:55 E 5 10.00 Drizzle SCT060 BKN120 60.1 59.5 98% 30.08 0.0
22 02:35 E 5 10.00 Rain OVC060 60.3 60.1 99% 30.09 0.0
22 02:15 E 5 10.00 Light Rain OVC060 60.4 59.9 98% 30.09 0.0
22 01:55 E 5 10.00 Light Rain OVC060 60.8 60.4 64.6 60.3 99% 30.11 0.0
22 01:35 E 3 10.00 Rain SCT013 BKN060 OVC120 60.8 60.1 98% 30.12 0.0
22 01:15 NE 5 10.00 Rain BKN013 BKN040 OVC120 60.8 60.3 98% 30.12 0.0
22 00:55 NE 3 10.00 Light Rain BKN013 BKN120 60.8 60.6 99% 30.11 0.0
22 00:35 E 3 10.00 Light Rain CLR 60.8 60.3 98% 30.11 0.0
22 00:15 NE 5 10.00 Rain CLR 60.8 60.1 98% 30.11 0.0
21 23:55 NE 3 10.00 Light Rain CLR 60.4 59.4 96% 30.11 0.0
21 23:35 E 3 10.00 Fair CLR 60.4 58.8 94% 30.12 0.0
21 23:15 Calm 10.00 Light Rain CLR 60.4 58.6 94% 30.13 0.0
21 22:55 E 3 10.00 Light Rain CLR 60.8 58.8 93% 30.13 0.0
21 22:35 NE 5 10.00 Light Rain SCT022 61.2 60.1 96% 30.13 0.0
21 22:15 NE 5 10.00 Light Drizzle SCT120 61.7 60.1 94% 30.13 0.0
21 21:55 N 6 10.00 Light Drizzle BKN120 61.9 60.6 96% 30.13 0.0
Date Time (edt) Wind (mph) Vis. (mi.) Weather Sky Cond. Air Dwpt Max. Min. Relative Humidity Wind Chill (°F) Heat Index (°F) altimeter (in) sea level (mb) 1 hr 3 hr 6 hr
6 hour
Temperature (ºF) Pressure Precipitation (in)